SCP
0 0 0 0 -0 0 -0 -0 0 -0 0 0 0 0 0 0 0 0 0 0 0 0 0 0 0 0 0 0 0 0 0 0
0 0 0 0 0 -0 -0 -0 0 0 0 0 0 0 0 0 0 0 0 0 0 0 0 0 0 0 0 0 0 0 0 0
-0 0 0 0 0 0 0 0 0 0 0 0 0 0 0 0 0 0 0 0 0 0 0 0 0 0 0 0 0 0 0 0
-0 0 0 0 0 0 0 0 0 0 0 0 0 0 0 0 0 0 0 0 0 0 0 0 0 0 0 0 0 0 0 0
0 0 0 0 0 0 0 0 0 0 0 0 0 0 0 0 0 0 0 0 0 0 0 0 0 0 0 0 0 0 0 0
0 0 0 0 0 0 0 0 0 0 0 0 0 0 0 0 0 0 0 0 0 0 0 0 0 0 0 0 0 0 0 0
0 0 0 0 0 0 0 0 0 0 0 0 0 0 0 0 0 0 0 0 0 0 0 0 0 0 0 0 0 0 0 0
0 0 0 0 0 0 0 0 0 0 0 0 0 0 0 0 0 0 0 0 0 0 0 0 0 0 0 0 0 0 0 0
0 0 0 0 0 0 0 0 0 0 0 0 0 0 0 0 0 0 0 0 0 0 0 0 0 0 0 0 0 -0 0 0
0 0 0 0 0 0 0 0 0 0 0 0 0 0 0 0 0 0 0 0 0 0 0 0 0 0 0 0 0 0 0 0
0 0 0 0 0 0 0 0 0 0 0 0 0 0 0 0 0 0 0 0 0 0 0 0 0 0 0 0 0 0 0 0
0 0 0 0 0 0 0 0 0 0 0 0 0 0 0 0 0 0 0 0 0 0 0 0 0 0 0 0 0 0 0 0
0 0 0 0 0 0 0 0 0 0 0 0 0 0 0 0 0 0 0 0 0 0 0 0 0 0 0 0 0 0 0 0
0 0 0 0 0 0 0 0 0 0 0 0 0 0 0 0 0 0 0 0 0 0 0 0 0 0 0 0 0 0 0 0
0 0 0 0 0 0 0 0 0 0 0 0 0 0 0 0 0 0 0 0 0 0 0 0 0 0 0 0 0 0 0 0
0 0 0 0 0 0 0 0 0 0 0 0 0 0 0 0 0 0 0 0 0 0 0 0 0 0 -0 0 0 0 0 0
0 0 0 0 0 0 0 0 0 0 0 0 0 0 0 0 0 0 0 0 0 0 0 0 0 0 -0 0 0 0 0 0
0 0 0 0 0 0 0 0 0 0 0 0 0 0 0 0 0 0 0 0 0 0 0 0 0 0 0 0 0 0 0 0
0 0 0 0 0 0 0 0 0 0 0 0 0 0 0 0 0 0 0 0 0 0 0 0 0 0 0 0 0 0 0 0
0 0 0 0 0 0 0 0 0 0 0 0 0 0 0 0 0 0 0 0 0 0 0 0 0 0 0 0 0 0 0 0
Wind_Speed_500mb
31 51 47 55 52 39 39 28 28 33 37 33 32 18 11 12 10 7 12 14 18 18 20 22 24 28 32 37 41 43 43 47
35 30 21 41 53 50 36 32 29 40 37 37 26 11 12 10 6 13 14 19 24 26 26 28 31 34 37 38 42 45 45 45
25 23 27 27 30 25 37 34 34 36 36 29 12 4 4 10 18 20 21 23 27 31 36 38 40 42 47 48 51 51 51 49
26 23 14 17 16 16 16 17 30 15 5 9 7 11 21 24 27 31 29 31 29 30 31 35 39 44 47 47 49 51 49 51
25 10 17 12 10 11 27 20 15 24 24 18 22 28 29 31 32 28 26 27 28 37 43 45 47 47 50 48 45 47 49 49
19 11 19 26 25 31 29 26 28 26 25 27 26 26 26 22 24 28 33 40 44 41 41 43 43 47 51 49 45 44 43 43
21 23 22 29 30 27 27 34 32 28 25 22 21 22 26 31 36 38 40 40 37 37 39 37 37 40 42 44 45 43 44 43
45 37 39 37 34 30 28 23 20 18 16 17 22 27 30 32 34 35 37 41 39 30 29 24 27 36 42 46 51 50 49 46
51 49 42 34 28 25 25 23 20 17 17 20 24 31 33 34 35 36 37 33 22 16 24 28 29 38 48 55 59 58 51 44
52 49 41 33 26 20 16 13 10 15 19 23 25 28 30 31 32 26 17 16 17 17 24 32 39 39 39 41 40 46 47 43
44 36 32 25 20 15 10 8 13 20 24 23 22 25 26 23 14 8 14 20 21 24 26 30 28 31 36 40 42 48 44 41
30 30 28 22 12 8 9 16 21 23 25 24 24 25 19 14 15 16 15 16 22 20 23 24 22 24 30 38 47 50 38 36
32 25 20 12 5 10 15 19 23 27 34 29 18 15 13 16 20 26 20 15 20 24 19 15 20 24 31 36 47 49 48 41
34 21 11 6 2 10 12 21 31 35 32 17 17 20 22 27 33 28 20 13 14 15 21 25 33 32 35 24 32 34 38 38
31 25 16 14 19 17 22 23 26 27 13 12 21 30 40 26 18 28 24 15 15 13 23 28 30 32 19 12 15 20 29 25
10 7 9 13 19 14 14 10 19 17 15 20 20 25 33 25 29 31 36 29 20 17 31 41 25 22 10 11 8 19 32 34
7 10 10 6 6 12 17 19 16 20 23 27 24 26 31 26 27 34 38 35 23 29 39 34 23 16 22 19 17 17 28 27
12 14 9 8 7 5 11 21 25 26 32 41 27 29 28 24 33 30 42 33 36 37 33 24 19 28 19 23 16 17 33 31
9 8 11 13 16 19 12 2 9 30 39 32 31 34 31 31 32 37 45 36 30 30 30 19 29 25 26 10 13 24 27 29
7 16 17 21 14 5 13 25 37 34 36 40 32 35 39 43 49 51 40 32 24 25 25 20 18 20 15 15 23 25 24 23
Wind_Direction_500mb
121 128 153 169 168 174 174 182 196 198 203 208 209 222 258 292 290 344 4 1 358 334 312 301 299 297 297 301 304 305 308 307
156 159 165 187 182 187 189 200 197 213 208 211 210 228 288 275 301 331 334 346 339 323 317 313 310 309 302 302 301 300 300 303
150 129 117 142 174 179 200 210 205 186 182 186 202 201 309 322 324 315 323 325 320 312 308 303 304 306 306 303 298 296 296 296
149 156 131 155 148 140 165 158 147 130 196 129 166 239 254 265 270 272 279 282 284 284 285 287 290 287 285 285 285 284 286 290
168 177 234 252 212 154 153 163 173 172 183 182 217 233 245 257 262 264 260 270 283 289 293 294 293 293 294 297 293 291 284 283
175 183 200 165 168 186 180 176 190 200 203 208 219 231 237 242 253 269 279 286 292 295 296 296 297 297 299 301 300 296 288 280
204 206 197 182 179 182 197 198 198 198 204 221 241 259 277 289 290 291 294 300 310 314 312 309 304 302 308 311 307 305 299 282
185 197 187 190 184 185 193 203 217 230 248 269 282 290 292 293 297 301 303 305 306 305 309 306 309 316 321 322 314 311 306 297
189 186 186 189 194 211 226 232 238 256 277 288 296 299 300 300 303 307 308 309 310 277 283 300 324 324 330 329 325 322 318 307
180 187 196 203 214 231 231 240 277 296 302 305 304 301 306 311 311 309 311 311 305 305 306 319 333 341 342 348 349 350 342 333
181 191 193 206 219 231 250 286 312 321 322 320 313 311 320 323 317 337 342 338 330 325 331 334 340 353 0 353 357 352 345 347
194 202 206 204 222 259 312 337 338 342 341 333 322 321 327 318 308 325 336 340 329 328 328 329 330 343 350 346 354 351 343 344
183 189 182 183 249 306 330 331 330 335 340 339 340 332 331 324 326 325 319 324 326 327 322 333 338 336 329 335 358 351 346 343
156 153 162 168 262 311 309 308 320 338 338 351 336 336 331 322 320 316 294 299 309 323 322 334 328 324 329 329 352 348 354 352
166 170 192 233 233 236 286 294 312 330 2 351 332 332 336 334 335 331 327 333 323 300 320 320 315 331 322 349 341 328 326 346
203 234 220 215 271 278 275 287 317 342 342 338 324 324 333 320 339 345 329 326 318 311 323 321 313 333 334 350 274 312 322 333
189 250 287 328 306 257 282 300 312 307 314 326 313 304 312 305 326 332 329 329 304 318 322 325 333 342 340 308 258 288 326 335
24 23 41 31 26 344 281 287 280 283 310 315 303 305 315 311 313 317 324 321 326 319 324 329 332 333 330 318 236 309 324 326
38 13 336 321 307 300 304 342 273 299 311 309 297 307 304 315 316 312 314 313 314 318 319 317 324 318 328 259 312 323 327 314
336 323 312 316 325 267 290 304 313 315 319 317 312 304 300 297 299 303 303 316 316 318 313 309 297 314 331 292 311 320 313 304
Wind_Speed_850mb
31 51 47 55 52 39 39 28 28 33 37 33 32 18 11 12 10 7 12 14 18 18 20 22 24 28 32 37 41 43 43 47
35 30 21 41 53 50 36 32 29 40 37 37 26 11 12 10 6 13 14 19 24 26 26 28 31 34 37 38 42 45 45 45
25 23 27 27 30 25 37 34 34 36 36 29 12 4 4 10 18 20 21 23 27 31 36 38 40 42 47 48 51 51 51 49
26 23 14 17 16 16 16 17 30 15 5 9 7 11 21 24 27 31 29 31 29 30 31 35 39 44 47 47 49 51 49 51
25 10 17 12 10 11 27 20 15 24 24 18 22 28 29 31 32 28 26 27 28 37 43 45 47 47 50 48 45 47 49 49
19 11 19 26 25 31 29 26 28 26 25 27 26 26 26 22 24 28 33 40 44 41 41 43 43 47 51 49 45 44 43 43
21 23 22 29 30 27 27 34 32 28 25 22 21 22 26 31 36 38 40 40 37 37 39 37 37 40 42 44 45 43 44 43
45 37 39 37 34 30 28 23 20 18 16 17 22 27 30 32 34 35 37 41 39 30 29 24 27 36 42 46 51 50 49 46
51 49 42 34 28 25 25 23 20 17 17 20 24 31 33 34 35 36 37 33 22 16 24 28 29 38 48 55 59 58 51 44
52 49 41 33 26 20 16 13 10 15 19 23 25 28 30 31 32 26 17 16 17 17 24 32 39 39 39 41 40 46 47 43
44 36 32 25 20 15 10 8 13 20 24 23 22 25 26 23 14 8 14 20 21 24 26 30 28 31 36 40 42 48 44 41
30 30 28 22 12 8 9 16 21 23 25 24 24 25 19 14 15 16 15 16 22 20 23 24 22 24 30 38 47 50 38 36
32 25 20 12 5 10 15 19 23 27 34 29 18 15 13 16 20 26 20 15 20 24 19 15 20 24 31 36 47 49 48 41
34 21 11 6 2 10 12 21 31 35 32 17 17 20 22 27 33 28 20 13 14 15 21 25 33 32 35 24 32 34 38 38
31 25 16 14 19 17 22 23 26 27 13 12 21 30 40 26 18 28 24 15 15 13 23 28 30 32 19 12 15 20 29 25
10 7 9 13 19 14 14 10 19 17 15 20 20 25 33 25 29 31 36 29 20 17 31 41 25 22 10 11 8 19 32 34
7 10 10 6 6 12 17 19 16 20 23 27 24 26 31 26 27 34 38 35 23 29 39 34 23 16 22 19 17 17 28 27
12 14 9 8 7 5 11 21 25 26 32 41 27 29 28 24 33 30 42 33 36 37 33 24 19 28 19 23 16 17 33 31
9 8 11 13 16 19 12 2 9 30 39 32 31 34 31 31 32 37 45 36 30 30 30 19 29 25 26 10 13 24 27 29
7 16 17 21 14 5 13 25 37 34 36 40 32 35 39 43 49 51 40 32 24 25 25 20 18 20 15 15 23 25 24 23
Wind_Direction_850mb
121 128 153 169 168 174 174 182 196 198 203 208 209 222 258 292 290 344 4 1 358 334 312 301 299 297 297 301 304 305 308 307
156 159 165 187 182 187 189 200 197 213 208 211 210 228 288 275 301 331 334 346 339 323 317 313 310 309 302 302 301 300 300 303
150 129 117 142 174 179 200 210 205 186 182 186 202 201 309 322 324 315 323 325 320 312 308 303 304 306 306 303 298 296 296 296
149 156 131 155 148 140 165 158 147 130 196 129 166 239 254 265 270 272 279 282 284 284 285 287 290 287 285 285 285 284 286 290
168 177 234 252 212 154 153 163 173 172 183 182 217 233 245 257 262 264 260 270 283 289 293 294 293 293 294 297 293 291 284 283
175 183 200 165 168 186 180 176 190 200 203 208 219 231 237 242 253 269 279 286 292 295 296 296 297 297 299 301 300 296 288 280
204 206 197 182 179 182 197 198 198 198 204 221 241 259 277 289 290 291 294 300 310 314 312 309 304 302 308 311 307 305 299 282
185 197 187 190 184 185 193 203 217 230 248 269 282 290 292 293 297 301 303 305 306 305 309 306 309 316 321 322 314 311 306 297
189 186 186 189 194 211 226 232 238 256 277 288 296 299 300 300 303 307 308 309 310 277 283 300 324 324 330 329 325 322 318 307
180 187 196 203 214 231 231 240 277 296 302 305 304 301 306 311 311 309 311 311 305 305 306 319 333 341 342 348 349 350 342 333
181 191 193 206 219 231 250 286 312 321 322 320 313 311 320 323 317 337 342 338 330 325 331 334 340 353 0 353 357 352 345 347
194 202 206 204 222 259 312 337 338 342 341 333 322 321 327 318 308 325 336 340 329 328 328 329 330 343 350 346 354 351 343 344
183 189 182 183 249 306 330 331 330 335 340 339 340 332 331 324 326 325 319 324 326 327 322 333 338 336 329 335 358 351 346 343
156 153 162 168 262 311 309 308 320 338 338 351 336 336 331 322 320 316 294 299 309 323 322 334 328 324 329 329 352 348 354 352
166 170 192 233 233 236 286 294 312 330 2 351 332 332 336 334 335 331 327 333 323 300 320 320 315 331 322 349 341 328 326 346
203 234 220 215 271 278 275 287 317 342 342 338 324 324 333 320 339 345 329 326 318 311 323 321 313 333 334 350 274 312 322 333
189 250 287 328 306 257 282 300 312 307 314 326 313 304 312 305 326 332 329 329 304 318 322 325 333 342 340 308 258 288 326 335
24 23 41 31 26 344 281 287 280 283 310 315 303 305 315 311 313 317 324 321 326 319 324 329 332 333 330 318 236 309 324 326
38 13 336 321 307 300 304 342 273 299 311 309 297 307 304 315 316 312 314 313 314 318 319 317 324 318 328 259 312 323 327 314
336 323 312 316 325 267 290 304 313 315 319 317 312 304 300 297 299 303 303 316 316 318 313 309 297 314 331 292 311 320 313 304